Simultaneous Nadir Overpasses (SNOs) Predictions

Prediction of SNOs near equator between AQUA and NPP Satellite Orbit:

Table of predicted SNOs near equator for the next 14.0 days since TLE Epoch: 11/17/2018
Index Date (AQUA) Time (AQUA) AQUA Lat,Lon Date (NPP) Time (NPP) NPP Lat,Lon Distance(km) Time Diff (sec)
1 11/19/2018 07:52:33 5.11, 85.00 11/19/2018 07:42:51 5.06, 84.81 21.68 582
2 11/19/2018 08:40:41 -0.61,-106.38 11/19/2018 08:32:14 -0.51,-106.84 51.63 507
3 11/19/2018 09:28:55 -4.02, 62.23 11/19/2018 09:21:44 -4.16, 61.50 81.68 431
4 11/22/2018 00:08:38 3.64,-158.80 11/21/2018 23:59:21 3.58,-159.09 32.15 557
5 11/22/2018 00:56:46 0.87, 9.81 11/22/2018 00:48:44 0.97, 9.26 62.10 482
6 11/22/2018 01:44:59 -5.49, 178.42 11/22/2018 01:38:14 -5.65, 177.60 91.94 406
7 11/24/2018 15:40:43 -22.16, 145.34 11/24/2018 15:30:43 -22.19, 145.04 31.20 600
8 11/24/2018 16:24:41 2.11, -42.60 11/24/2018 16:15:49 2.03, -42.98 42.64 532
9 11/24/2018 17:12:49 2.40, 126.01 11/24/2018 17:05:12 2.52, 125.37 72.48 457
10 11/27/2018 07:52:31 -5.20, -95.00 11/27/2018 07:42:48 -5.17, -95.21 22.71 583
11 11/27/2018 08:40:45 0.59, 73.60 11/27/2018 08:32:18 0.49, 73.13 53.16 507
12 11/27/2018 09:28:53 3.93,-117.78 11/27/2018 09:21:41 4.06,-118.52 82.82 432
13 11/30/2018 00:08:35 -3.68, 21.20 11/29/2018 23:59:17 -3.63, 20.91 33.23 558
14 11/30/2018 00:56:49 -0.92,-170.20 11/30/2018 00:48:47 -1.04,-170.76 63.68 482
15 11/30/2018 01:44:57 5.44, -1.58 11/30/2018 01:38:10 5.60, -2.41 93.07 407




NCC Satellite Simultaneous Nadir Overpasses (SNOs) Prediction Service
